CAPE
0 0 0 0 0 0 0 0 0 0 0 0 0 0 0 0 0 0 0 0 0 0 0 0 0 0 0 0 0 0 0 40 412 826 721 781 964 810 557 638 529 939 1119 749 159 144 135 468 705 750 1050 1399 1415 1670
0 0 0 0 0 0 0 0 0 0 0 0 0 0 0 0 0 0 0 0 0 0 0 0 0 0 0 0 0 0 0 69 207 1149 1061 1050 986 1207 876 644 814 379 806 233 891 847 1082 879 1296 1471 1223 1202 1135 1198
0 0 0 0 0 0 0 0 0 0 0 0 0 0 0 0 0 0 0 0 0 0 0 0 0 0 0 0 0 0 0 0 0 475 966 1273 910 1100 851 920 1063 1252 1176 878 1081 1040 1092 1150 1203 1278 1171 1101 878 841
0 0 0 0 0 0 0 0 0 0 0 0 0 0 0 0 0 0 0 0 0 0 0 0 0 0 0 0 0 0 0 0 0 7 159 669 941 743 913 932 1013 1272 1148 1144 1021 963 768 762 922 888 830 741 727 681
0 0 0 0 0 0 0 0 0 0 0 0 0 0 0 0 0 0 0 0 0 0 0 0 0 0 0 0 0 0 0 0 0 0 91 209 498 793 882 783 659 901 938 990 940 1042 1044 1238 944 824 756 569 472 419
0 0 0 0 0 0 0 0 0 0 0 0 0 0 0 0 0 0 0 0 0 0 0 0 0 0 0 0 0 0 0 0 0 0 0 8 124 611 474 560 869 893 909 824 826 797 1009 1172 1017 651 643 572 600 544
0 0 0 0 0 0 0 0 0 0 0 0 0 0 0 0 0 0 0 0 0 0 0 0 0 0 0 0 0 0 0 0 0 0 0 0 18 122 458 463 639 616 368 387 682 790 1001 868 765 729 654 549 480 702
0 0 0 0 0 0 0 0 0 0 0 0 0 0 0 0 0 0 3 0 0 0 0 0 0 0 0 18 123 0 0 0 0 0 0 0 0 0 1 39 255 698 368 114 460 739 893 1013 845 787 751 700 803 766
0 0 0 0 0 0 0 0 0 0 0 0 0 0 0 0 0 2 0 19 47 4 17 14 3 15 0 5 238 20 7 6 0 0 0 0 12 7 0 0 0 204 347 428 384 581 789 913 1023 1058 997 893 823 802
0 0 0 0 0 0 0 0 0 0 0 0 0 3 16 0 15 17 12 2 13 0 6 5 1 0 1 170 482 579 596 480 50 35 131 26 31 389 373 460 621 735 741 582 444 452 940 831 966 1031 1031 1244 1100 834
0 0 0 0 0 0 0 0 0 0 0 0 0 0 0 0 0 1 57 23 56 62 105 154 98 128 161 325 318 519 443 544 392 675 504 377 406 732 380 710 796 783 841 911 801 605 469 753 1079 1132 1169 1059 1012 1033
0 0 0 0 0 0 0 0 0 0 0 0 0 0 0 0 0 0 55 13 0 4 13 125 93 108 381 449 658 343 210 238 123 387 473 192 753 377 327 503 574 627 891 850 870 865 775 786 1149 1168 1329 1393 1109 414
0 0 0 0 0 0 0 0 0 0 0 0 0 0 8 2 29 27 1 0 49 26 136 311 100 119 542 548 684 424 108 138 186 266 98 424 397 190 290 462 410 461 823 1079 1076 948 901 910 1208 1190 1475 1195 537 149
0 0 0 0 0 0 0 0 0 0 0 0 3 4 33 37 49 54 105 375 397 418 441 533 404 630 630 506 274 90 238 320 141 125 213 546 258 235 226 260 330 416 532 990 1138 889 991 1225 1125 1387 1271 826 375 173
0 0 0 0 0 0 0 0 0 0 0 0 4 8 58 55 109 215 304 417 357 356 234 384 203 555 492 289 212 116 119 143 190 362 636 367 363 330 310 307 306 424 550 1009 1108 1083 1127 1235 1308 1295 896 479 251 180
0 0 0 0 0 0 0 0 0 0 0 0 0 68 61 150 91 107 201 325 202 62 16 128 124 299 277 369 155 133 108 176 562 463 472 371 394 303 255 369 377 494 657 658 1213 1181 1183 1349 1285 839 535 296 186 159
0 0 0 0 0 0 0 0 0 0 0 1 154 97 185 215 294 75 181 67 79 74 76 85 59 124 222 252 188 282 441 431 21 17 46 213 5 9 19 89 574 834 657 571 1067 1083 1207 1229 974 672 429 339 171 180
0 0 0 0 0 0 0 0 8 9 7 122 229 158 206 266 312 300 150 72 54 52 151 16 145 69 20 47 259 112 26 41 21 16 55 127 21 8 123 338 635 1021 906 757 1005 1222 1082 923 711 506 469 323 112 58
0 0 0 0 0 0 0 9 3 2 58 89 205 247 255 347 460 221 176 73 10 25 41 58 71 15 57 145 37 43 32 23 117 110 76 16 7 70 474 540 1006 622 775 457 925 478 350 291 119 98 171 311 40 14
0 0 0 0 0 0 3 2 3 5 69 262 174 335 452 542 474 446 250 10 2 0 0 0 0 0 190 159 124 123 132 325 298 109 166 92 18 243 398 712 847 523 425 281 391 263 75 32 167 533 141 55 45 3
0 0 0 0 0 0 3 2 1 56 93 129 224 354 308 355 550 147 25 0 7 0 0 0 57 8 25 4 88 160 195 417 276 281 255 152 115 289 267 557 566 575 53 12 111 115 98 139 367 981 260 96 114 54
0 0 2 0 0 1 0 2 18 130 136 226 307 364 395 443 292 31 38 38 18 0 0 0 0 3 0 0 15 102 37 34 28 73 11 14 25 46 140 167 56 51 18 0 3 59 13 69 174 618 277 265 36 49
0 0 5 8 2 0 0 0 122 239 260 224 183 281 420 430 139 49 78 86 69 113 92 0 10 0 0 1 11 4 19 26 59 104 45 36 17 9 17 18 0 0 0 0 54 61 59 55 61 88 131 215 300 246
0 6 9 1 1 1 4 47 65 164 162 118 85 144 234 413 272 158 69 102 113 114 282 131 49 0 0 0 0 1 0 2 3 1 76 71 1 0 1 0 45 104 93 0 11 28 54 79 42 155 193 191 123 154
0 0 0 0 0 7 55 61 73 84 69 63 83 191 243 367 353 269 99 106 112 145 413 286 433 228 128 134 183 177 179 180 156 217 146 197 213 133 121 84 152 204 147 94 87 99 120 176 178 149 199 87 47 49
0 0 0 0 25 45 52 75 83 77 95 102 159 154 103 256 209 260 216 162 222 324 538 507 280 373 312 241 188 186 157 96 80 57 38 41 19 8 8 38 53 75 68 116 159 125 130 154 138 107 107 78 9 28
0 0 1 0 1 11 88 131 178 174 165 121 144 192 194 177 161 471 447 347 429 404 351 279 207 205 188 130 167 103 88 40 20 3 0 1 2 12 17 14 10 9 14 10 10 13 9 4 0 0 7 36 61 20
0 0 0 25 0 85 169 158 166 171 116 230 220 208 142 199 384 709 351 526 450 387 333 160 122 122 121 113 124 109 113 80 40 34 17 9 2 0 0 0 0 0 0 0 0 0 0 0 0 0 0 6 14 13
0 0 0 42 74 140 192 184 136 139 269 359 281 246 297 421 569 601 638 593 588 340 206 129 100 59 84 44 57 73 84 126 131 95 71 21 1 0 1 0 0 0 0 0 0 0 0 0 0 0 0 0 0 0
0 0 6 75 108 117 154 252 230 260 356 505 436 351 561 842 735 757 763 709 488 312 241 228 133 47 37 52 53 36 37 48 95 73 49 1 0 0 0 0 0 0 0 0 0 0 0 0 0 0 0 0 0 2
0 0 2 85 91 144 265 242 372 444 434 335 299 434 487 652 678 805 799 749 532 314 309 166 54 25 52 83 79 42 5 0 0 0 0 0 0 0 0 0 0 0 0 0 0 0 0 0 0 0 0 0 0 0
0 0 21 86 168 187 238 411 439 524 501 408 328 415 433 646 639 769 790 748 565 380 91 155 83 76 115 109 42 4 0 0 0 0 0 0 0 0 0 0 0 0 0 0 0 0 0 0 0 0 0 0 0 0
0 12 69 131 200 293 395 422 472 435 478 381 369 357 362 388 285 468 746 713 587 463 377 300 341 201 263 237 96 3 5 3 0 0 0 0 0 0 2 6 4 0 0 0 0 0 0 0 0 0 0 0 0 0
CIN
-0 -0 -0 -0 -0 -0 -0 -0 -0 -0 -0 -0 -0 -0 -0 -0 -0 -0 -0 -0 -0 -0 -0 -0 -0 -0 -0 -0 -0 -0 -0 -18 -0 -0 -0 -0 -0 -0 -0 -1 -5 -0 -0 -0 -3 -2 -1 -72 -107 -19 -55 -79 -71 -78
-0 -0 -0 -0 -0 -0 -0 -0 -0 -0 -0 -0 -0 -0 -0 -0 -0 -0 -0 -0 -0 -0 -0 -0 -0 -0 -0 -0 -0 -0 -0 -32 -22 -4 -3 -0 -0 -1 -0 -0 -11 -0 -0 -47 -7 -5 -90 -105 -90 -127 -101 -126 -136 -119
-0 -0 -0 -0 -0 -0 -0 -0 -0 -0 -0 -0 -0 -0 -0 -0 -0 -0 -0 -0 -0 -0 -0 -0 -0 -0 -0 -0 -0 -0 -0 -0 -0 -36 -0 -1 -7 -2 -2 -0 -1 -13 -34 -7 -15 -43 -78 -109 -131 -119 -120 -126 -157 -166
-0 -0 -0 -0 -0 -0 -0 -0 -0 -0 -0 -0 -0 -0 -0 -0 -0 -0 -0 -0 -0 -0 -0 -0 -0 -0 -0 -0 -0 -0 -0 -0 -0 -89 -25 -0 -2 -56 -0 -23 -5 -12 -55 -8 -6 -21 -58 -85 -105 -129 -156 -158 -150 -95
-0 -0 -0 -0 -0 -0 -0 -0 -0 -0 -0 -0 -0 -0 -0 -0 -0 -0 -0 -0 -0 -0 -0 -0 -0 -0 -0 -0 -0 -0 -0 -0 -0 -5 -20 -4 -0 -5 -3 -18 -3 -12 -1 -5 -0 -18 -29 -39 -90 -127 -122 -159 -178 -173
-0 -0 -0 -0 -0 -0 -0 -0 -0 -0 -0 -0 -0 -0 -0 -0 -0 -0 -0 -0 -0 -0 -0 -0 -0 -0 -0 -0 -0 -0 -0 -0 -0 -0 -0 -16 -21 -2 -0 -0 -1 -14 -28 -32 -20 -79 -49 -49 -69 -93 -85 -118 -118 -103
-0 -0 -0 -0 -0 -0 -0 -0 -0 -0 -0 -0 -0 -0 -0 -0 -0 -0 -0 -0 -0 -0 -0 -0 -0 -0 -0 -0 -0 -0 -0 -0 -0 -0 -0 -0 -0 -32 -0 -0 -0 -20 -51 -68 -70 -93 -54 -62 -35 -74 -76 -97 -175 -81
-0 -0 -0 -0 -0 -0 -0 -0 -0 -0 -0 -0 -0 -0 -0 -0 -0 -0 -0 -0 -0 -0 -0 -0 -0 -0 -0 -0 -0 -0 -0 -0 -0 -0 -0 -0 -0 -0 -0 -14 -5 -2 -28 -60 -42 -33 -25 -39 -57 -60 -63 -65 -66 -44
-0 -0 -0 -0 -0 -0 -0 -0 -0 -0 -0 -0 -0 -0 -0 -0 -0 -0 -0 -1 -0 -0 -0 -0 -0 -0 -0 -3 -0 -22 -15 -12 -0 -0 -0 -0 -0 -0 -0 -0 -0 -14 -36 -27 -33 -36 -34 -36 -31 -39 -44 -55 -44 -24
-0 -0 -0 -0 -0 -0 -0 -0 -0 -0 -0 -0 -0 -0 -0 -0 -0 -0 -2 -1 -30 -1 -0 -1 -0 -0 -3 -0 -0 -0 -0 -0 -8 -17 -4 -12 -0 -11 -30 -53 -59 -63 -76 -92 -54 -22 -32 -73 -28 -26 -27 -28 -30 -22
-0 -0 -0 -0 -0 -0 -0 -0 -0 -0 -0 -0 -0 -0 -0 -0 -0 -0 -0 -1 -2 -5 -7 -0 -7 -3 -2 -0 -0 -3 -1 -2 -0 -0 -0 -0 -0 -0 -55 -30 -53 -90 -87 -61 -65 -36 -20 -10 -8 -28 -32 -41 -32 -19
-0 -0 -0 -0 -0 -0 -0 -0 -0 -0 -0 -0 -0 -0 -0 -0 -0 -0 -0 -0 -0 -4 -53 -0 -9 -3 -0 -0 -0 -2 -1 -5 -0 -6 -0 -0 -0 -17 -33 -35 -48 -78 -54 -72 -71 -72 -44 -18 -16 -25 -26 -16 -17 -60
-0 -0 -0 -0 -0 -0 -0 -0 -0 -0 -0 -0 -0 -0 -0 -0 -2 -0 -0 -0 -0 -1 -5 -0 -21 -11 -2 -2 -1 -2 -4 -0 -6 -0 -0 -0 -0 -18 -29 -31 -53 -60 -34 -15 -27 -68 -56 -30 -28 -35 -25 -23 -70 -28
-0 -0 -0 -0 -0 -0 -0 -0 -0 -0 -0 -0 -0 -0 -0 -0 -0 -2 -19 -0 -0 -0 -0 -0 -0 -0 -0 -0 -0 -0 -0 -5 -2 -0 -0 -0 -2 -18 -36 -46 -53 -53 -55 -16 -24 -67 -39 -36 -42 -9 -18 -54 -99 -106
-0 -0 -0 -0 -0 -0 -0 -0 -0 -0 -0 -0 -0 -0 -20 -20 -14 -0 -0 -0 -0 -0 -0 -0 -0 -0 -0 -0 -0 -1 -1 -0 -0 -0 -0 -0 -3 -12 -21 -30 -37 -36 -38 -9 -18 -27 -19 -17 -5 -4 -19 -69 -100 -100
-0 -0 -0 -0 -0 -0 -0 -0 -0 -0 -0 -0 -0 -1 -28 -0 -6 -1 -0 -0 -0 -0 -2 -6 -1 -0 -0 -0 -0 -0 -0 -0 -0 -0 -0 -0 -4 -16 -27 -22 -27 -29 -23 -36 -0 -7 -1 -0 -0 -23 -42 -65 -84 -77
-0 -0 -0 -0 -0 -0 -0 -0 -0 -0 -0 -0 -3 -5 -0 -0 -0 -25 -2 -20 -1 -0 -0 -0 -0 -0 -0 -0 -0 -0 -0 -0 -28 -20 -44 -17 -0 -0 -105 -77 -8 -0 -16 -48 -0 -1 -0 -0 -0 -6 -19 -24 -28 -30
-0 -0 -0 -0 -0 -0 -0 -0 -0 -0 -13 -1 -0 -0 -28 -1 -3 -0 -1 -0 -0 -0 -30 -0 -4 -0 -2 -0 -0 -6 -3 -3 -16 -30 -26 -12 -70 -18 -52 -30 -1 -0 -0 -14 -0 -0 -0 -0 -0 -1 -1 -0 -4 -28
-0 -0 -0 -0 -0 -0 -0 -0 -0 -0 -7 -3 -5 -9 -36 -9 -0 -7 -1 -6 -0 -0 -0 -5 -0 -0 -0 -1 -0 -0 -2 -3 -1 -1 -10 -44 -0 -59 -11 -8 -0 -0 -0 -4 -0 -6 -0 -1 -0 -50 -63 -11 -4 -16
-0 -0 -0 -0 -0 -0 -0 -0 -0 -5 -10 -3 -22 -4 -3 -1 -1 -0 -0 -5 -0 -0 -0 -0 -0 -0 -0 -0 -0 -0 -0 -0 -0 -0 -0 -15 -68 -6 -4 -0 -0 -0 -0 -1 -0 -0 -21 -0 -8 -1 -2 -2 -2 -20
-0 -0 -0 -0 -0 -0 -0 -0 -0 -14 -13 -13 -8 -13 -32 -20 -0 -0 -1 -0 -0 -0 -0 -0 -0 -1 -1 -0 -0 -1 -0 -0 -0 -0 -0 -2 -10 -0 -0 -0 -0 -0 -18 -25 -5 -4 -0 -1 -5 -2 -3 -0 -9 -13
-0 -0 -0 -0 -0 -0 -0 -0 -4 -11 -14 -0 -3 -12 -21 -2 -0 -1 -5 -0 -0 -0 -0 -0 -0 -0 -0 -0 -0 -30 -11 -25 -5 -48 -12 -7 -0 -1 -1 -1 -3 -4 -0 -0 -65 -0 -1 -17 -18 -11 -0 -1 -39 -29
-0 -0 -0 -0 -0 -0 -0 -0 -7 -0 -3 -0 -0 -2 -3 -1 -2 -15 -0 -5 -1 -9 -5 -0 -0 -0 -0 -1 -1 -2 -52 -16 -8 -0 -0 -0 -8 -0 -10 -1 -0 -0 -0 -0 -0 -4 -12 -11 -31 -17 -8 -1 -0 -3
-0 -0 -0 -0 -0 -0 -6 -6 -14 -3 -0 -1 -9 -0 -0 -1 -1 -0 -0 -0 -1 -5 -3 -3 -11 -0 -0 -0 -0 -1 -0 -1 -1 -42 -3 -11 -0 -0 -0 -0 -1 -4 -4 -0 -0 -28 -98 -108 -38 -56 -3 -0 -3 -0
-0 -0 -0 -0 -0 -0 -0 -0 -1 -3 -14 -19 -5 -1 -0 -3 -0 -0 -0 -1 -5 -0 -0 -7 -7 -8 -32 -44 -9 -21 -25 -7 -13 -14 -36 -10 -3 -2 -2 -15 -15 -8 -18 -41 -30 -64 -56 -38 -8 -2 -0 -1 -1 -0
-0 -0 -0 -0 -0 -1 -0 -0 -0 -4 -8 -1 -0 -1 -4 -0 -0 -0 -0 -0 -0 -1 -2 -2 -10 -7 -13 -78 -100 -92 -63 -61 -33 -32 -70 -29 -27 -46 -28 -30 -24 -17 -18 -21 -23 -17 -25 -14 -11 -15 -4 -17 -6 -1
-0 -0 -0 -0 -0 -5 -1 -0 -3 -3 -0 -0 -0 -1 -0 -0 -0 -1 -4 -11 -2 -7 -23 -25 -26 -7 -6 -17 -28 -83 -44 -40 -49 -73 -13 -29 -60 -51 -42 -40 -46 -54 -39 -33 -20 -8 -1 -1 -0 -0 -0 -0 -0 -1
-0 -0 -0 -0 -0 -1 -1 -0 -0 -0 -0 -1 -1 -0 -0 -0 -0 -5 -0 -18 -24 -27 -19 -16 -24 -18 -15 -13 -12 -3 -3 -11 -19 -5 -15 -22 -32 -0 -0 -0 -0 -0 -0 -4 -0 -0 -0 -0 -0 -0 -0 -6 -6 -14
-0 -0 -0 -0 -0 -0 -0 -0 -0 -0 -2 -0 -0 -0 -0 -0 -2 -0 -8 -16 -25 -13 -0 -0 -0 -2 -6 -17 -10 -3 -0 -0 -1 -0 -0 -0 -2 -0 -3 -0 -0 -0 -0 -0 -0 -0 -0 -0 -0 -0 -0 -0 -0 -0
-0 -0 -0 -0 -0 -0 -0 -0 -0 -8 -10 -9 -10 -0 -1 -3 -0 -13 -11 -12 -5 -0 -1 -0 -1 -1 -0 -0 -0 -0 -0 -0 -0 -0 -0 -0 -0 -0 -0 -0 -0 -0 -0 -0 -0 -0 -0 -0 -0 -0 -0 -0 -0 -0
-0 -0 -0 -0 -0 -0 -0 -6 -10 -19 -16 -14 -18 -0 -0 -0 -2 -11 -12 -15 -7 -8 -3 -0 -0 -0 -0 -0 -0 -0 -2 -0 -0 -0 -0 -0 -0 -0 -0 -0 -0 -0 -0 -0 -0 -0 -0 -0 -0 -0 -0 -0 -0 -0
-0 -0 -0 -0 -0 -12 -19 -5 -11 -0 -3 -4 -2 -0 -0 -0 -1 -4 -16 -29 -17 -8 -15 -11 -0 -0 -1 -0 -1 -9 -0 -0 -0 -0 -0 -0 -0 -0 -0 -0 -0 -0 -0 -0 -0 -0 -0 -0 -0 -0 -0 -0 -0 -0
-0 -0 -0 -0 -1 -6 -17 -4 -4 -3 -1 -0 -4 -0 -0 -0 -0 -0 -22 -13 -1 -0 -3 -7 -0 -3 -4 -4 -1 -6 -4 -7 -0 -0 -0 -0 -0 -0 -5 -2 -2 -0 -0 -0 -0 -0 -0 -0 -0 -0 -0 -0 -0 -0
Wind_Speed
nan nan nan nan nan nan nan nan nan nan nan nan nan nan nan nan nan nan nan nan nan nan nan nan nan nan nan nan nan nan nan nan 10 12 11 11 14 15 16 19 19 21 16 13 15 17 15 30 26 24 39 42 39 39
nan nan nan nan nan nan nan nan nan nan nan nan nan nan nan nan nan nan nan nan nan nan nan nan nan nan nan nan nan nan nan nan 17 16 17 23 20 24 16 13 26 31 31 25 39 29 33 27 30 31 31 38 40 41
nan nan nan nan nan nan nan nan nan nan nan nan nan nan nan nan nan nan nan nan nan nan nan nan nan nan nan nan nan nan nan nan nan 18 15 18 18 22 17 10 16 9 35 32 36 36 32 28 29 32 35 36 35 38
nan nan nan nan nan nan nan nan nan nan nan nan nan nan nan nan nan nan nan nan nan nan nan nan nan nan nan nan nan nan nan nan nan nan 8 10 18 20 23 30 22 34 23 31 29 31 32 31 32 34 36 36 35 34
nan nan nan nan nan nan nan nan nan nan nan nan nan nan nan nan nan nan nan nan nan nan nan nan nan nan nan nan nan nan nan nan nan nan nan 7 14 14 21 22 17 21 28 28 41 50 43 44 38 36 38 40 38 36
nan nan nan nan nan nan nan nan nan nan nan nan nan nan nan nan nan nan nan nan nan nan nan nan nan nan nan nan nan nan nan nan nan nan nan nan 17 16 20 21 29 20 23 28 39 40 42 44 41 36 39 39 38 39
nan nan nan nan nan nan nan nan nan nan nan nan nan nan nan nan nan nan nan nan nan nan nan nan nan nan nan nan nan nan nan nan nan nan nan nan nan 18 12 8 16 27 33 32 31 37 36 39 42 39 37 38 37 36
nan nan nan nan nan nan nan nan nan nan nan nan nan nan nan nan nan nan nan nan nan nan nan nan nan nan nan nan 28 nan nan nan nan nan nan nan nan nan nan nan 10 17 25 31 26 25 34 41 41 40 40 39 35 34
nan nan nan nan nan nan nan nan nan nan nan nan nan nan nan nan nan nan nan nan nan nan nan nan nan nan nan nan 26 nan nan nan nan nan nan nan nan nan nan nan nan 19 23 29 28 26 24 24 27 32 39 33 29 32
nan nan nan nan nan nan nan nan nan nan nan nan nan nan nan nan nan nan nan nan nan nan nan nan nan nan nan 22 22 23 24 23 nan nan 26 nan nan 31 27 22 21 17 18 23 25 24 26 25 25 26 25 28 28 31
nan nan nan nan nan nan nan nan nan nan nan nan nan nan nan nan nan nan nan nan nan nan 1 6 nan 17 19 16 22 22 22 22 20 23 21 21 20 29 29 26 27 25 20 14 12 16 23 22 25 25 30 31 30 32
nan nan nan nan nan nan nan nan nan nan nan nan nan nan nan nan nan nan nan nan nan nan nan 5 nan 16 18 18 16 18 19 21 18 22 21 19 31 29 26 28 30 29 24 20 14 11 8 12 17 22 28 28 29 33
nan nan nan nan nan nan nan nan nan nan nan nan nan nan nan nan nan nan nan nan nan nan 9 6 3 4 12 11 12 15 14 16 20 20 nan 32 31 30 29 30 31 30 28 25 21 15 14 14 19 23 26 27 30 26
nan nan nan nan nan nan nan nan nan nan nan nan nan nan nan nan nan nan 20 15 13 15 8 5 4 6 3 2 7 nan 13 14 13 14 21 26 28 29 31 30 30 31 31 29 26 18 18 21 22 24 23 24 26 24
nan nan nan nan nan nan nan nan nan nan nan nan nan nan nan nan 14 14 16 18 18 15 11 7 8 11 8 7 10 13 12 12 15 23 25 25 24 25 27 28 29 29 29 26 24 19 19 22 20 22 23 23 25 25
nan nan nan nan nan nan nan nan nan nan nan nan nan nan nan 14 nan 12 16 15 18 nan nan 14 13 13 16 17 13 13 15 18 23 22 23 21 22 24 22 24 23 24 26 26 23 17 18 19 22 26 24 22 20 20
nan nan nan nan nan nan nan nan nan nan nan nan 18 nan 14 12 12 nan 14 nan nan nan nan nan nan 13 15 15 18 23 24 25 nan nan nan 21 nan nan nan nan 17 20 26 22 21 17 14 21 24 23 22 22 22 20
nan nan nan nan nan nan nan nan nan nan nan 20 17 14 16 15 15 17 19 nan nan nan 16 nan 7 nan nan nan 17 20 nan nan nan nan nan 17 nan nan 15 16 15 18 23 21 19 19 18 25 26 25 26 27 27 nan
nan nan nan nan nan nan nan nan nan nan nan nan 16 17 16 14 18 18 21 nan nan nan nan nan nan nan nan 5 nan nan nan nan 18 22 nan nan nan nan 13 17 13 16 21 20 19 26 27 24 28 nan 27 29 nan nan
nan nan nan nan nan nan nan nan nan nan nan 17 18 19 16 14 15 18 20 nan nan nan nan nan nan nan 5 5 5 2 3 13 18 21 22 nan nan 12 18 18 11 12 17 24 24 22 nan nan 34 21 22 nan nan nan
nan nan nan nan nan nan nan nan nan nan nan 17 16 17 15 16 17 17 nan nan nan nan nan nan nan nan nan nan nan 4 3 6 10 14 16 16 17 16 13 14 10 9 nan nan 23 26 nan 21 20 14 20 nan 16 nan
nan nan nan nan nan nan nan nan nan 14 16 15 17 19 18 18 18 nan nan nan nan nan nan nan nan nan nan nan nan 9 nan nan nan nan nan nan nan nan 11 15 nan nan nan nan nan nan nan nan 21 26 25 18 nan nan
nan nan nan nan nan nan nan nan 12 17 15 17 18 21 18 18 19 nan nan nan nan 23 nan nan nan nan nan nan nan nan nan nan nan 13 nan nan nan nan nan nan nan nan nan nan nan nan nan nan nan nan 22 15 18 17
nan nan nan nan nan nan nan nan nan 13 15 16 nan 15 15 17 16 9 nan 11 17 17 19 15 nan nan nan nan nan nan nan nan nan nan nan nan nan nan nan nan nan 20 nan nan nan nan nan nan nan 16 14 19 17 11
nan nan nan nan nan nan nan nan nan nan nan nan nan 15 14 14 10 7 nan 10 9 9 7 10 15 11 23 19 14 11 16 11 19 12 3 9 8 9 7 nan 20 24 26 nan nan nan 20 15 14 18 11 nan nan nan
nan nan nan nan nan nan nan nan nan nan nan 13 15 13 13 11 7 5 4 7 8 6 4 3 6 8 7 2 12 16 14 nan nan nan nan nan nan nan nan nan nan nan nan 16 12 11 12 7 2 1 7 nan nan nan
nan nan nan nan nan nan nan 10 9 9 11 14 13 9 10 8 2 6 2 3 3 2 5 5 6 8 8 11 16 17 nan nan nan nan nan nan nan nan nan nan nan nan nan nan nan nan nan nan nan nan nan nan nan nan
nan nan nan nan nan nan 6 7 8 11 12 15 11 9 8 5 6 6 4 3 1 2 5 7 6 8 9 10 12 13 10 nan nan nan nan nan nan nan nan nan nan nan nan nan nan nan nan nan nan nan nan nan nan nan
nan nan nan nan nan 9 7 6 7 11 12 14 9 7 8 7 6 7 8 5 2 4 4 4 5 nan nan nan nan nan nan 10 7 nan nan nan nan nan nan nan nan nan nan nan nan nan nan nan nan nan nan nan nan nan
nan nan nan nan 8 6 7 7 8 11 9 7 6 8 8 7 4 5 5 3 2 2 2 5 2 nan nan nan nan nan nan nan nan nan nan nan nan nan nan nan nan nan nan nan nan nan nan nan nan nan nan nan nan nan
nan nan nan nan nan 6 10 11 11 9 10 7 7 3 5 3 4 4 3 5 6 6 3 2 nan nan nan nan nan nan nan nan nan nan nan nan nan nan nan nan nan nan nan nan nan nan nan nan nan nan nan nan nan nan
nan nan nan nan 9 9 9 10 10 9 9 7 6 5 6 3 6 4 2 4 3 2 nan 4 nan nan 6 4 nan nan nan nan nan nan nan nan nan nan nan nan nan nan nan nan nan nan nan nan nan nan nan nan nan nan
nan nan nan 5 6 6 4 6 7 5 2 5 5 5 3 3 2 6 5 0 1 2 3 2 3 4 6 6 nan nan nan nan nan nan nan nan nan nan nan nan nan nan nan nan nan nan nan nan nan nan nan nan nan nan
Wind_Direction
nan nan nan nan nan nan nan nan nan nan nan nan nan nan nan nan nan nan nan nan nan nan nan nan nan nan nan nan nan nan nan nan 252 245 237 241 214 246 226 251 287 174 186 219 205 219 202 252 252 230 232 237 245 255
nan nan nan nan nan nan nan nan nan nan nan nan nan nan nan nan nan nan nan nan nan nan nan nan nan nan nan nan nan nan nan nan 240 244 236 222 240 232 218 245 267 158 168 188 198 221 223 250 223 231 241 248 247 253
nan nan nan nan nan nan nan nan nan nan nan nan nan nan nan nan nan nan nan nan nan nan nan nan nan nan nan nan nan nan nan nan nan 242 239 241 226 221 229 216 247 257 178 198 194 221 227 233 233 239 240 247 249 249
nan nan nan nan nan nan nan nan nan nan nan nan nan nan nan nan nan nan nan nan nan nan nan nan nan nan nan nan nan nan nan nan nan nan 240 227 232 235 224 222 213 218 209 201 204 218 226 234 233 239 243 246 252 256
nan nan nan nan nan nan nan nan nan nan nan nan nan nan nan nan nan nan nan nan nan nan nan nan nan nan nan nan nan nan nan nan nan nan nan 263 237 229 238 224 226 232 213 214 208 219 220 230 240 244 250 253 254 257
nan nan nan nan nan nan nan nan nan nan nan nan nan nan nan nan nan nan nan nan nan nan nan nan nan nan nan nan nan nan nan nan nan nan nan nan 241 229 231 227 231 227 226 222 223 217 229 241 244 249 254 254 256 257
nan nan nan nan nan nan nan nan nan nan nan nan nan nan nan nan nan nan nan nan nan nan nan nan nan nan nan nan nan nan nan nan nan nan nan nan nan 251 238 232 241 239 229 221 228 230 232 237 241 251 252 257 263 262
nan nan nan nan nan nan nan nan nan nan nan nan nan nan nan nan nan nan nan nan nan nan nan nan nan nan nan nan 263 nan nan nan nan nan nan nan nan nan nan nan 204 219 217 221 227 234 231 235 242 244 247 255 257 269
nan nan nan nan nan nan nan nan nan nan nan nan nan nan nan nan nan nan nan nan nan nan nan nan nan nan nan nan 251 nan nan nan nan nan nan nan nan nan nan nan nan 228 215 217 222 233 235 242 248 250 251 253 260 271
nan nan nan nan nan nan nan nan nan nan nan nan nan nan nan nan nan nan nan nan nan nan nan nan nan nan nan 249 256 251 250 244 nan nan 250 nan nan 249 251 230 235 231 222 223 224 237 246 239 234 238 250 255 265 263
nan nan nan nan nan nan nan nan nan nan nan nan nan nan nan nan nan nan nan nan nan nan 93 207 nan 221 245 227 236 240 242 248 246 254 249 245 244 250 233 227 227 223 220 223 230 200 231 242 252 256 258 263 267 263
nan nan nan nan nan nan nan nan nan nan nan nan nan nan nan nan nan nan nan nan nan nan nan 235 nan 223 219 223 228 246 230 237 237 246 248 245 247 236 229 223 221 219 219 217 227 236 244 257 263 265 266 270 268 268
nan nan nan nan nan nan nan nan nan nan nan nan nan nan nan nan nan nan nan nan nan nan 359 354 115 101 177 211 218 225 230 238 242 242 nan 243 246 235 231 231 224 217 215 216 223 239 264 275 286 281 274 273 272 269
nan nan nan nan nan nan nan nan nan nan nan nan nan nan nan nan nan nan 13 9 357 7 14 39 337 315 326 273 247 nan 249 242 245 253 249 245 231 226 223 224 223 216 212 217 226 245 263 276 285 283 283 280 273 269
nan nan nan nan nan nan nan nan nan nan nan nan nan nan nan nan 2 20 9 352 336 336 315 316 320 308 292 273 262 243 265 265 250 241 246 238 227 223 219 218 217 214 210 208 218 233 256 269 279 280 282 281 268 259
nan nan nan nan nan nan nan nan nan nan nan nan nan nan nan 14 nan 324 329 336 329 nan nan 313 302 296 288 270 269 273 249 254 251 245 237 235 223 214 213 211 213 212 210 208 218 225 246 267 269 271 279 281 275 266
nan nan nan nan nan nan nan nan nan nan nan nan 7 nan 11 359 357 nan 349 nan nan nan nan nan nan 291 281 269 258 248 240 243 nan nan nan 218 nan nan nan nan 201 209 207 211 219 230 255 257 265 271 275 277 276 271
nan nan nan nan nan nan nan nan nan nan nan 352 353 344 353 3 357 5 340 nan nan nan 305 nan 311 nan nan nan 238 251 nan nan nan nan nan 202 nan nan 209 200 195 201 208 207 207 229 258 255 250 247 259 261 272 nan
nan nan nan nan nan nan nan nan nan nan nan nan 351 349 352 354 344 357 354 nan nan nan nan nan nan nan nan 284 nan nan nan nan 217 204 nan nan nan nan 193 195 200 210 206 211 216 224 231 244 239 nan 255 241 nan nan
nan nan nan nan nan nan nan nan nan nan nan 326 342 342 340 335 341 350 348 nan nan nan nan nan nan nan 232 232 258 288 212 211 203 196 195 nan nan 203 203 208 219 230 225 219 223 237 nan nan 232 231 269 nan nan nan
nan nan nan nan nan nan nan nan nan nan nan 347 347 354 346 351 336 330 nan nan nan nan nan nan nan nan nan nan nan 51 63 141 168 179 185 193 206 215 209 207 224 210 nan nan 231 233 nan 250 245 245 269 nan 231 nan
nan nan nan nan nan nan nan nan nan 316 340 339 344 343 347 338 330 nan nan nan nan nan nan nan nan nan nan nan nan 103 nan nan nan nan nan nan nan nan 216 240 nan nan nan nan nan nan nan nan 219 261 240 208 nan nan
nan nan nan nan nan nan nan nan 329 330 338 331 340 346 339 332 327 nan nan nan nan 1 nan nan nan nan nan nan nan nan nan nan nan 199 nan nan nan nan nan nan nan nan nan nan nan nan nan nan nan nan 227 211 233 240
nan nan nan nan nan nan nan nan nan 326 331 336 nan 347 334 325 334 351 nan 353 8 18 16 7 nan nan nan nan nan nan nan nan nan nan nan nan nan nan nan nan nan 200 nan nan nan nan nan nan nan 206 236 230 233 252
nan nan nan nan nan nan nan nan nan nan nan nan nan 347 330 331 339 342 nan 335 14 22 7 23 13 42 98 97 110 141 152 146 139 156 160 166 193 208 201 nan 146 155 155 nan nan nan 175 180 195 214 215 nan nan nan
nan nan nan nan nan nan nan nan nan nan nan 333 340 334 341 341 349 322 339 328 4 33 43 10 65 51 31 100 147 136 152 nan nan nan nan nan nan nan nan nan nan nan nan 180 187 197 201 179 133 276 252 nan nan nan
nan nan nan nan nan nan nan 318 319 333 334 335 337 348 349 354 308 262 281 314 360 32 81 63 41 74 79 72 66 70 nan nan nan nan nan nan nan nan nan nan nan nan nan nan nan nan nan nan nan nan nan nan nan nan
nan nan nan nan nan nan 307 314 331 331 327 326 337 352 341 324 253 251 259 273 135 79 66 63 66 86 88 85 87 80 60 nan nan nan nan nan nan nan nan nan nan nan nan nan nan nan nan nan nan nan nan nan nan nan
nan nan nan nan nan 304 315 317 313 313 318 335 342 346 332 298 293 235 234 232 167 92 38 37 3 nan nan nan nan nan nan 57 29 nan nan nan nan nan nan nan nan nan nan nan nan nan nan nan nan nan nan nan nan nan
nan nan nan nan 325 313 293 297 293 297 321 318 331 338 340 328 295 218 222 208 213 117 151 147 115 nan nan nan nan nan nan nan nan nan nan nan nan nan nan nan nan nan nan nan nan nan nan nan nan nan nan nan nan nan
nan nan nan nan nan 277 280 288 291 298 325 322 320 350 318 313 294 298 259 211 171 174 122 90 nan nan nan nan nan nan nan nan nan nan nan nan nan nan nan nan nan nan nan nan nan nan nan nan nan nan nan nan nan nan
nan nan nan nan 302 288 306 317 319 318 326 327 324 326 348 11 339 24 21 133 146 120 nan 182 nan nan 259 235 nan nan nan nan nan nan nan nan nan nan nan nan nan nan nan nan nan nan nan nan nan nan nan nan nan nan
nan nan nan 311 304 329 328 341 333 337 336 329 336 339 338 8 325 262 260 184 112 339 330 41 241 262 266 214 nan nan nan nan nan nan nan nan nan nan nan nan nan nan nan nan nan nan nan nan nan nan nan nan nan nan